[[{"header":{"parameterUnit":"m.s-1","parameterCategory":1,"la1":30.2991,"la2":30.254,"lo1":-89.0895,"lo2":-89.0444,"dy":0.0017,"dx":0.0017,"nx":28,"ny":28,"refTime":"2024-05-15T21:00:00:Z","depth":0,"parameterNumber":2,"parameterNumberName":"U-component_of_WINDS"},"data":[0,0,0,0,0,0,0,0,0,0,0,0,0,0,0,0,0,0,0,0,0,0,0,0,0,0,0,0,0,0,0,0,0,0,0,0,0,0,0,0,0,0,0,0,0,0,0,0,0,0,0,0,0,0,0,0,0,0,-2.6627,-2.6626,0,-2.6524,-2.6523,-2.6521,-2.6437,-2.6437,-2.6436,-2.6435,-2.6326,-2.6324,-2.6322,0,0,0,0,0,0,0,0,0,0,0,0,0,-2.6751,-2.6749,-2.6627,-2.6626,-2.6625,-2.6524,-2.6523,-2.6521,-2.6438,-2.6437,-2.6436,-2.6435,-2.6327,-2.6324,-2.6322,0,0,0,0,0,0,0,0,0,0,0,0,0,-2.6677,-2.6748,-2.6628,-2.6571,-2.6565,-2.6524,-2.6523,-2.6521,-2.6438,-2.6437,-2.6435,-2.6434,-2.6327,-2.6324,-2.6321,-2.6327,0,0,-2.6311,-2.631,0,0,0,0,0,0,0,0,-2.6681,-2.6673,-2.6581,-2.6575,-2.6568,-2.6492,-2.6526,-2.6456,-2.6438,-2.6486,-2.6435,-2.6433,-2.6382,-2.6374,-2.6358,-2.6322,-2.6317,-2.6311,-2.6309,-2.6308,-2.6307,0,0,0,0,0,0,0,-2.6687,-2.6677,-2.6586,-2.6579,-2.6572,-2.655,-2.6538,-2.6512,-2.6442,-2.6482,-2.6475,-2.6464,-2.6378,-2.6361,-2.6354,-2.6316,-2.6311,-2.6308,-2.6307,-2.6305,-2.628,-2.6281,0,0,0,0,0,0,-2.6701,-2.6681,-2.659,-2.6583,-2.6623,-2.6549,-2.6536,-2.6518,-2.6442,-2.643,-2.6466,-2.6461,-2.6367,-2.6358,-2.635,-2.6351,-2.6308,-2.6305,-2.6303,-2.6278,-2.628,-2.6281,0,0,0,0,0,0,-2.6704,-2.6693,-2.6594,-2.6631,-2.6616,-2.6548,-2.6529,-2.6516,-2.6499,-2.643,-2.6417,-2.6461,-2.6366,-2.6355,-2.6334,-2.6346,-2.6304,-2.6301,-2.6277,-2.6279,-2.6281,-2.6354,0,0,0,0,0,0,-2.6708,-2.6695,-2.6697,-2.6631,-2.6615,-2.658,-2.653,-2.6515,-2.6494,-2.6487,-2.6422,-2.641,-2.6364,-2.6339,-2.6331,-2.6341,-2.6298,-2.6275,-2.6278,-2.628,-2.635,-2.6358,-2.6365,0,0,0,0,0,-2.6712,-2.6721,-2.6697,-2.6687,-2.6616,-2.658,-2.6571,-2.6518,-2.6495,-2.6496,-2.6453,-2.6412,-2.6347,-2.6337,-2.6327,-2.6337,-2.6274,-2.6277,-2.628,-2.6346,-2.6356,-2.6365,0,0,0,0,0,0,-2.6788,-2.6711,-2.6684,-2.6672,-2.6634,-2.6566,-2.6565,-2.653,-2.6496,-2.6491,-2.6426,-2.6412,-2.6398,-2.6366,-2.6356,-2.6339,-2.6305,-2.6306,-2.636,-2.6368,-2.6376,-2.6382,-2.6296,0,0,0,0,0,-2.6804,-2.6783,-2.6716,-2.6712,-2.6694,-2.6634,-2.6616,-2.6579,-2.6536,-2.6519,-2.6474,-2.6433,-2.6403,-2.6384,-2.6353,-2.6346,-2.633,-2.6348,-2.6356,-2.6362,-2.6362,-2.6355,-2.6362,-2.629,-2.629,-2.629,0,0,-2.6835,-2.6791,-2.6781,-2.6726,-2.6692,-2.667,-2.662,-2.66,-2.6582,-2.6516,-2.6492,-2.6459,-2.6409,-2.6395,-2.6386,-2.6367,-2.6379,-2.6366,-2.6371,-2.6368,-2.6359,-2.6366,-2.6372,-2.6292,-2.6292,-2.6291,0,0,-2.688,-2.6846,-2.6837,-2.6805,-2.6754,-2.6715,-2.6713,-2.6652,-2.6627,-2.6603,-2.6553,-2.6532,-2.6482,-2.6448,-2.6424,-2.646,-2.6421,-2.6452,-2.6489,-2.6483,-2.6489,-2.6493,-2.6504,-2.6509,-2.6453,-2.6454,-2.6454,0,-2.6925,-2.6891,-2.6838,-2.682,-2.6797,-2.6738,-2.6729,-2.67,-2.6641,-2.6626,-2.6607,-2.6544,-2.6506,-2.6483,-2.6492,-2.6476,-2.647,-2.6457,-2.6492,-2.6496,-2.65,-2.6509,-2.6514,-2.6457,-2.6457,-2.6457,-2.6456,0,-2.6947,-2.6925,-2.6924,-2.6871,-2.6848,-2.6835,-2.6779,-2.6763,-2.6729,-2.6691,-2.6668,-2.6621,-2.6579,-2.6572,-2.6538,-2.6544,-2.6534,-2.6505,-2.6469,-2.6512,-2.6519,-2.6522,-2.6463,-2.6462,-2.646,-2.6459,0,0,-2.7033,-2.6953,-2.6953,-2.6928,-2.6869,-2.685,-2.6835,-2.6795,-2.6782,-2.6745,-2.6729,-2.6689,-2.6662,-2.6636,-2.6598,-2.6593,-2.6622,-2.6564,-2.6562,-2.6574,-2.6624,-2.6644,-2.6649,-2.6598,-2.6598,-2.6599,-2.6627,0,-2.7067,-2.7036,-2.6989,-2.6973,-2.695,-2.6896,-2.6882,-2.6844,-2.681,-2.6785,-2.6746,-2.6719,-2.6686,-2.667,-2.6663,-2.662,-2.6631,-2.6618,-2.658,-2.658,-2.6591,-2.6653,-2.6674,-2.6702,-2.663,-2.663,-2.6631,0,-2.7101,-2.7068,-2.705,-2.6994,-2.6983,-2.6971,-2.6931,-2.6909,-2.6866,-2.6841,-2.6813,-2.6772,-2.6752,-2.6723,-2.6694,-2.6686,-2.6669,-2.6646,-2.6646,-2.6637,-2.6605,-2.6643,-2.671,-2.6714,-2.6635,-2.6635,-2.6635,0,-2.7162,-2.7114,-2.7096,-2.7077,-2.7012,-2.7005,-2.6977,-2.6932,-2.6912,-2.6877,-2.6863,-2.6827,-2.6806,-2.6778,-2.6729,-2.6713,-2.6705,-2.6672,-2.6682,-2.6683,-2.6679,-2.6679,-2.6741,-2.6674,-2.6674,-2.6674,-2.6673,0,-2.7202,-2.7193,-2.7123,-2.7112,-2.71,-2.7047,-2.7036,-2.7004,-2.6965,-2.6946,-2.6897,-2.6881,-2.6818,-2.6794,-2.6756,-2.6736,-2.6728,-2.6706,-2.6695,-2.6708,-2.6711,-2.6693,-2.6689,-2.6675,-2.6674,-2.6674,-2.6674,0,-2.7267,-2.7221,-2.7198,-2.7139,-2.7124,-2.7117,-2.7066,-2.7053,-2.7017,-2.6994,-2.6985,-2.6928,-2.6897,-2.6846,-2.6801,-2.6775,-2.6762,-2.6746,-2.6776,-2.6769,-2.6781,-2.678,-2.6831,-2.6834,-2.6768,-2.6769,-2.677,0,-2.7294,-2.7286,-2.7227,-2.7211,-2.7186,-2.7161,-2.7141,-2.7089,-2.7069,-2.702,-2.7012,-2.6978,-2.6948,-2.6901,-2.6854,-2.6819,-2.68,-2.6821,-2.6794,-2.6808,-2.6797,-2.6797,-2.6795,-2.6826,-2.6827,-2.6828,-2.6828,0,-2.7346,-2.7324,-2.7297,-2.7262,-2.7239,-2.7208,-2.7175,-2.7165,-2.7106,-2.7086,-2.7055,-2.7031,-2.6986,-2.6952,-2.691,-2.6881,-2.6844,-2.6838,-2.6838,-2.6849,-2.6866,-2.6855,-2.679,-2.6836,-2.6835,-2.6834,-2.6834,-2.6834,-2.7391,-2.7381,-2.7338,-2.7309,-2.7279,-2.725,-2.7235,-2.7198,-2.7171,-2.713,-2.7102,-2.7072,-2.7029,-2.697,-2.6943,-2.6918,-2.6902,-2.6902,-2.6902,-2.6902,-2.6906,-2.6874,-2.6911,-2.6911,-2.691,-2.691,-2.691,0,-2.7438,-2.7409,-2.7383,-2.7339,-2.7316,-2.7287,-2.7249,-2.7232,-2.7207,-2.7171,-2.7142,-2.7106,-2.7074,-2.7026,-2.699,-2.6979,-2.6962,-2.6971,-2.697,-2.6963,-2.6924,-2.6926,-2.6986,-2.6986,-2.6986,-2.6986,-2.6986,-2.6986,-2.746,-2.7441,-2.7414,-2.738,-2.735,-2.7321,-2.7302,-2.7275,-2.7246,-2.7208,-2.7181,-2.7151,-2.711,-2.7071,-2.704,-2.7026,-2.7014,-2.7029,-2.701,-2.6973,-2.6966,-2.6959,-2.6961,-2.7027,-2.7027,-2.7051,-2.7051,-2.7051]},{"header":{"parameterUnit":"m.s-1","parameterCategory":1,"la1":30.2991,"la2":30.254,"lo1":-89.0895,"lo2":-89.0444,"dy":0.0017,"dx":0.0017,"nx":28,"ny":28,"refTime":"2024-05-15T21:00:00:Z","depth":0,"parameterNumber":3,"parameterNumberName":"V-component_of_WINDS"},"data":[0,0,0,0,0,0,0,0,0,0,0,0,0,0,0,0,0,0,0,0,0,0,0,0,0,0,0,0,0,0,0,0,0,0,0,0,0,0,0,0,0,0,0,0,0,0,0,0,0,0,0,0,0,0,0,0,0,0,2.2455,2.2455,0,2.2439,2.2439,2.2439,2.2509,2.2511,2.2514,2.2515,2.2495,2.2493,2.249,0,0,0,0,0,0,0,0,0,0,0,0,0,2.2543,2.2541,2.2455,2.2455,2.2454,2.2439,2.2439,2.2439,2.2509,2.2512,2.2514,2.2516,2.2496,2.2493,2.249,0,0,0,0,0,0,0,0,0,0,0,0,0,2.2513,2.254,2.2455,2.2488,2.2491,2.2439,2.2439,2.2439,2.2508,2.2512,2.2515,2.2518,2.2497,2.2493,2.249,2.2404,0,0,2.2478,2.2477,0,0,0,0,0,0,0,0,2.2515,2.251,2.2483,2.2485,2.2488,2.248,2.2463,2.2427,2.2508,2.2501,2.2516,2.2519,2.2487,2.2484,2.2474,2.2404,2.2403,2.2478,2.2476,2.2474,2.2473,0,0,0,0,0,0,0,2.2517,2.2511,2.2448,2.2483,2.2486,2.2502,2.2502,2.2456,2.2477,2.2502,2.2507,2.2505,2.2489,2.2478,2.2475,2.2402,2.2478,2.2475,2.2472,2.2471,2.2262,2.2259,0,0,0,0,0,0,2.2515,2.2512,2.2449,2.2448,2.251,2.2498,2.2498,2.2479,2.2478,2.248,2.2502,2.2508,2.2483,2.2479,2.2474,2.2375,2.2474,2.2471,2.2468,2.2266,2.2262,2.2258,0,0,0,0,0,0,2.2517,2.2509,2.245,2.2482,2.2475,2.2494,2.2472,2.2477,2.2466,2.2478,2.2481,2.2487,2.2485,2.2479,2.2422,2.2376,2.2469,2.2466,2.227,2.2265,2.226,2.2176,0,0,0,0,0,0,2.2519,2.2509,2.2477,2.248,2.2473,2.2398,2.2469,2.2475,2.246,2.2468,2.2464,2.2467,2.2487,2.2427,2.2418,2.2372,2.2463,2.2274,2.2267,2.2262,2.2183,2.2169,2.2157,0,0,0,0,0,2.2522,2.2453,2.2475,2.2467,2.2434,2.2395,2.2391,2.2417,2.2456,2.2424,2.2432,2.2467,2.2382,2.2421,2.2411,2.2363,2.2277,2.2269,2.2262,2.2189,2.2172,2.2157,0,0,0,0,0,0,2.2442,2.2454,2.2479,2.2409,2.2401,2.2407,2.2368,2.2398,2.2377,2.2385,2.2417,2.2415,2.2353,2.2352,2.2395,2.2282,2.2336,2.2326,2.2284,2.2268,2.2255,2.2256,2.246,0,0,0,0,0,2.2416,2.2385,2.2397,2.2334,2.2329,2.2349,2.2333,2.2354,2.2346,2.2342,2.2346,2.2336,2.2308,2.2288,2.2262,2.2184,2.2185,2.2147,2.2133,2.2123,2.2114,2.2073,2.2057,2.2234,2.2234,2.2234,0,0,2.2363,2.2366,2.2343,2.2318,2.2314,2.228,2.2345,2.2306,2.2281,2.2336,2.2283,2.2285,2.2276,2.2209,2.2179,2.2206,2.2065,2.2113,2.2104,2.2101,2.2064,2.2047,2.2032,2.2229,2.223,2.223,0,0,2.2248,2.2247,2.2195,2.2191,2.2185,2.2199,2.2187,2.2189,2.2193,2.2141,2.2182,2.2152,2.2102,2.2094,2.2084,2.1968,2.2,2.1959,2.189,2.185,2.1836,2.1824,2.1783,2.1768,2.195,2.195,2.195,0,2.2182,2.2133,2.2165,2.2123,2.2111,2.2162,2.211,2.2103,2.2088,2.2078,2.211,2.2049,2.2047,2.1979,2.1951,2.194,2.1927,2.1959,2.1836,2.1824,2.1813,2.1775,2.1759,2.1945,2.1946,2.1946,2.1946,0,2.2052,2.2018,2.1977,2.1964,2.1947,2.19,2.1924,2.1904,2.1926,2.1937,2.1883,2.1882,2.1858,2.1843,2.1864,2.1778,2.1796,2.1831,2.1886,2.1791,2.1755,2.1741,2.1938,2.194,2.1941,2.1942,0,0,2.1885,2.1892,2.1876,2.1871,2.187,2.1843,2.1799,2.1777,2.1759,2.1747,2.1711,2.1669,2.1702,2.169,2.1711,2.1676,2.1586,2.1716,2.1716,2.1692,2.1492,2.1465,2.1447,2.1607,2.1605,2.1602,2.1493,0,2.1773,2.17,2.1727,2.1651,2.162,2.1669,2.1631,2.1625,2.1634,2.1608,2.1618,2.1588,2.1634,2.1627,2.1595,2.1603,2.1546,2.1612,2.1573,2.1571,2.1574,2.1429,2.14,2.1296,2.1479,2.1476,2.1475,0,2.1632,2.1618,2.1539,2.1544,2.1532,2.1497,2.148,2.1456,2.145,2.1459,2.1447,2.1476,2.1433,2.1489,2.1429,2.1474,2.146,2.1461,2.1458,2.1455,2.1517,2.1422,2.1264,2.1248,2.1453,2.1455,2.1456,0,2.1519,2.1479,2.1427,2.1422,2.1426,2.1401,2.1401,2.14,2.1385,2.137,2.1361,2.134,2.1328,2.1311,2.1333,2.1372,2.1271,2.1328,2.1277,2.1276,2.1252,2.1254,2.109,2.1243,2.1244,2.1244,2.1244,0,2.1391,2.1341,2.1377,2.1345,2.129,2.1323,2.1268,2.1274,2.1272,2.1241,2.1281,2.1252,2.1283,2.1256,2.1274,2.1222,2.1216,2.1222,2.1227,2.1219,2.1218,2.1209,2.1217,2.124,2.1241,2.1242,2.1242,0,2.1254,2.1276,2.1223,2.1233,2.1235,2.1194,2.1202,2.1173,2.1186,2.1147,2.1139,2.1159,2.113,2.1151,2.1121,2.1132,2.1065,2.108,2.1067,2.1071,2.1018,2.1023,2.0844,2.0822,2.0989,2.0987,2.0986,0,2.1171,2.1134,2.1141,2.1124,2.1123,2.1095,2.1082,2.1112,2.1096,2.1089,2.106,2.1035,2.1016,2.0967,2.0978,2.0955,2.097,2.0909,2.0967,2.096,2.097,2.0971,2.0968,2.0897,2.0895,2.0893,2.0892,0,2.1021,2.1035,2.1014,2.0997,2.098,2.0968,2.0959,2.0943,2.0974,2.0954,2.0925,2.0911,2.0882,2.0856,2.0838,2.0838,2.087,2.0874,2.0861,2.0851,2.0845,2.0848,2.1035,2.0877,2.0879,2.088,2.0881,2.0881,2.0909,2.0879,2.088,2.0856,2.0853,2.0844,2.0817,2.0828,2.0805,2.0785,2.0804,2.077,2.0767,2.0747,2.0743,2.0716,2.0741,2.0722,2.0717,2.0712,2.0705,2.085,2.0713,2.0713,2.0714,2.0714,2.0714,0,2.0762,2.0765,2.0743,2.073,2.0711,2.0745,2.0737,2.0719,2.0689,2.0684,2.0666,2.0633,2.0609,2.0619,2.0597,2.0574,2.0588,2.0567,2.0569,2.0569,2.0683,2.0697,2.0556,2.0556,2.0557,2.0557,2.0557,2.0557,2.0683,2.0635,2.0648,2.0599,2.0602,2.057,2.0563,2.0555,2.0552,2.0515,2.0495,2.0503,2.0504,2.0483,2.0462,2.0466,2.0456,2.043,2.0438,2.0545,2.0561,2.0575,2.0588,2.0427,2.0427,2.0326,2.0325,2.0324]}]]